TimeEST,TemperatureF,Dew PointF,Humidity,Sea Level PressureIn,VisibilityMPH,Wind Direction,Wind SpeedMPH,Gust SpeedMPH,PrecipitationIn,Events,Conditions,WindDirDegrees,DateUTC
12:51 AM,6.1,-11.9,44,29.94,10.0,WNW,19.6,33.4,N/A,,Clear,290,2014-01-07 05:51:00
1:51 AM,3.9,-14.1,43,29.97,10.0,West,21.9,33.4,N/A,,Clear,280,2014-01-07 06:51:00
2:51 AM,3.9,-13.0,46,30.01,10.0,WNW,19.6,33.4,N/A,,Clear,290,2014-01-07 07:51:00
3:51 AM,1.9,-14.1,47,30.04,10.0,West,17.3,31.1,N/A,,Clear,280,2014-01-07 08:51:00
4:51 AM,1.0,-16.1,45,30.07,10.0,West,23.0,33.4,N/A,,Clear,280,2014-01-07 09:51:00
5:51 AM,-0.0,-17.0,45,30.11,10.0,West,21.9,31.1,N/A,,Clear,280,2014-01-07 10:51:00
6:51 AM,-0.0,-17.0,45,30.15,10.0,West,16.1,26.5,N/A,,Clear,270,2014-01-07 11:51:00
7:51 AM,-0.9,-18.0,44,30.20,10.0,West,13.8,27.6,N/A,,Clear,270,2014-01-07 12:51:00
8:51 AM,1.0,-17.0,43,30.24,10.0,West,15.0,23.0,N/A,,Clear,270,2014-01-07 13:51:00
9:51 AM,1.9,-15.0,45,30.28,10.0,West,18.4,27.6,N/A,,Clear,260,2014-01-07 14:51:00
10:51 AM,3.0,-14.1,45,30.28,10.0,West,19.6,29.9,N/A,,Clear,260,2014-01-07 15:51:00
11:51 AM,3.9,-14.1,43,30.25,10.0,West,19.6,27.6,N/A,,Mostly Cloudy,260,2014-01-07 16:51:00
12:51 PM,5.0,-11.9,46,30.24,10.0,West,18.4,26.5,N/A,,Mostly Cloudy,260,2014-01-07 17:51:00
1:51 PM,7.0,-11.9,42,30.25,10.0,West,18.4,28.8,N/A,,Clear,260,2014-01-07 18:51:00
2:51 PM,8.1,-11.9,40,30.27,10.0,West,17.3,25.3,N/A,,Partly Cloudy,260,2014-01-07 19:51:00
3:51 PM,7.0,-11.9,42,30.29,10.0,West,12.7,21.9,N/A,,Clear,260,2014-01-07 20:51:00
4:51 PM,7.0,-11.0,44,30.30,10.0,West,13.8,23.0,N/A,,Clear,260,2014-01-07 21:51:00
5:51 PM,7.0,-9.9,46,30.31,10.0,West,15.0,21.9,N/A,,Clear,260,2014-01-07 22:51:00
6:51 PM,6.1,-9.9,48,30.32,10.0,WSW,13.8,-,N/A,,Clear,250,2014-01-07 23:51:00
7:51 PM,6.1,-9.0,50,30.35,10.0,West,10.4,-,N/A,,Clear,270,2014-01-08 00:51:00
8:51 PM,7.0,-9.0,48,30.38,10.0,West,9.2,-,N/A,,Clear,260,2014-01-08 01:51:00
9:51 PM,6.1,-8.0,53,30.40,10.0,WSW,12.7,-,N/A,,Clear,250,2014-01-08 02:51:00
10:51 PM,6.1,-8.0,53,30.41,10.0,West,10.4,-,N/A,,Clear,260,2014-01-08 03:51:00
11:51 PM,6.1,-8.0,53,30.42,10.0,West,9.2,-,N/A,,Clear,260,2014-01-08 04:51:00